Weather History for Grand Rapids, MI

Change the Weather History Date:

Thursday, February 13, 2014

  Actual Average Record
Temperature  
Mean Temperature 25 °F 26 °F  
Max Temperature 31 °F 33 °F 58 °F (1938)
Min Temperature 18 °F 20 °F -24 °F (1899)
Degree Days  
Heating Degree Days 40 39  
Month to date heating degree days 649 515  
Since 1 July heating degree days 4614 4222  
Cooling Degree Days 0 0  
Month to date cooling degree days 0 0  
Year to date cooling degree days 0 0  
Moisture  
Dew Point 11 °F    
Average Humidity 56    
Maximum Humidity 75    
Minimum Humidity 36    
Precipitation  
Precipitation T in 0.06 in 0.68 in (1938)
Month to date precipitation 0.85 0.76  
Year to date precipitation 4.26 2.85  
Snow  
Snow T in 0.60 in 5.00 in (1900)
Month to date snowfall 13.4 7.4  
Since 1 July snowfall 92.2 57.4  
Snow Depth 21.00 in    
Sea Level Pressure  
Sea Level Pressure 29.79 in    
Wind  
Wind Speed 9 mph (SSE)    
Max Wind Speed 22 mph    
Max Gust Speed 26 mph    
Visibility 9 miles    
Events Snow    
T = Trace of Precipitation, MM = Missing Value Source: NWS Daily Summary

Daily Weather History Graph

Daily Weather History Graph

Search for Another Location

Airport:

Trip Planner

Search our weather history database for the weather conditions in past years. The results will help you decide how hot, cold, wet, or windy it might be!

Date:

Astronomy

Feb. 13, 2014 Rise Set
Actual Time 7:42 AM EST 6:11 PM EST
Civil Twilight 7:12 AM EST 6:40 PM EST
Nautical Twilight 6:39 AM EST 7:13 PM EST
Astronomical Twilight 6:06 AM EST 7:46 PM EST
Moon 5:18 PM EST (2/13) 6:35 AM EST (2/13)
Length of Visible Light 11h 27m
Length of Day
10h 28m
Waxing Gibbous, 98% of the Moon is Illuminated
Feb 13
Waxing Gibbous
Feb 14
Full
Feb 22
Last Quarter
Mar 1
New
Mar 8
First Quarter

Hourly Weather History & Observations

Time (EST) Temp. Windchill Dew Point Humidity Pressure Visibility Wind Dir Wind Speed Gust Speed Precip Events Conditions
12:53 AM 19.9 °F 13.4 °F 9.0 °F 62% 30.06 in 10.0 mi SSE 4.6 mph - N/A   Overcast
1:53 AM 19.9 °F 13.4 °F 9.0 °F 62% 30.06 in 10.0 mi SSE 4.6 mph - N/A   Overcast
2:53 AM 19.9 °F 13.4 °F 10.0 °F 65% 30.05 in 10.0 mi South 4.6 mph - N/A   Overcast
3:53 AM 19.9 °F 11.1 °F 9.0 °F 62% 30.03 in 10.0 mi SSE 6.9 mph - N/A   Overcast
4:53 AM 21.0 °F 9.9 °F 9.0 °F 60% 30.01 in 10.0 mi SSE 10.4 mph - N/A   Overcast
5:53 AM 21.0 °F 12.4 °F 8.1 °F 57% 30.01 in 10.0 mi South 6.9 mph - N/A   Overcast
6:53 AM 19.9 °F 14.9 °F 7.0 °F 57% 29.99 in 10.0 mi SSE 3.5 mph - N/A   Overcast
7:53 AM 19.9 °F 14.9 °F 8.1 °F 60% 29.96 in 10.0 mi ESE 3.5 mph - N/A   Mostly Cloudy
8:53 AM 19.0 °F 10.0 °F 7.0 °F 59% 29.94 in 10.0 mi SE 6.9 mph - N/A   Mostly Cloudy
9:53 AM 21.0 °F 11.4 °F 7.0 °F 55% 29.91 in 9.0 mi ESE 8.1 mph - N/A   Mostly Cloudy
10:53 AM 24.1 °F 15.2 °F 8.1 °F 51% 29.88 in 10.0 mi ESE 8.1 mph - N/A   Mostly Cloudy
11:53 AM 27.0 °F 18.7 °F 8.1 °F 45% 29.86 in 10.0 mi SE 8.1 mph - N/A   Mostly Cloudy
12:53 PM 28.9 °F 18.2 °F 6.1 °F 38% 29.80 in 10.0 mi SSE 13.8 mph - N/A   Mostly Cloudy
1:53 PM 30.9 °F 21.7 °F 7.0 °F 37% 29.76 in 10.0 mi South 11.5 mph - N/A   Mostly Cloudy
2:53 PM 30.0 °F 20.5 °F 7.0 °F 38% 29.72 in 10.0 mi South 11.5 mph - N/A   Overcast
3:53 PM 30.0 °F 19.1 °F 8.1 °F 40% 29.69 in 10.0 mi South 15.0 mph - N/A   Overcast
4:45 PM 28.0 °F 14.6 °F 12.0 °F 51% 29.63 in 1.2 mi SSW 20.7 mph 26.5 mph 0.00 in Snow Light Snow
4:53 PM 28.0 °F 15.7 °F 12.9 °F 53% 29.65 in 1.8 mi South 17.3 mph - 0.00 in Snow Light Snow
5:06 PM 28.0 °F 16.5 °F 14.0 °F 56% 29.61 in 3.0 mi South 15.0 mph - 0.00 in Snow Light Snow
5:18 PM 27.0 °F 13.9 °F 16.0 °F 63% 29.61 in 2.0 mi South 18.4 mph - 0.00 in Snow Light Snow
5:37 PM 26.1 °F 15.6 °F 18.0 °F 71% 29.61 in 9.0 mi South 11.5 mph - 0.00 in Snow Light Snow
5:53 PM 26.1 °F 15.0 °F 19.0 °F 75% 29.63 in 9.0 mi SSE 12.7 mph - 0.00 in Snow Light Snow
6:53 PM 27.0 °F 16.1 °F 17.1 °F 66% 29.61 in 10.0 mi SSE 12.7 mph - 0.00 in   Overcast
7:53 PM 26.1 °F 17.6 °F 18.0 °F 71% 29.59 in 10.0 mi South 8.1 mph - N/A   Overcast
8:53 PM 27.0 °F 18.7 °F 16.0 °F 63% 29.56 in 10.0 mi South 8.1 mph - N/A   Overcast
9:09 PM 27.0 °F 18.7 °F 16.0 °F 63% 29.52 in 10.0 mi South 8.1 mph - N/A   Overcast
9:53 PM 28.0 °F 20.0 °F 15.1 °F 58% 29.53 in 10.0 mi South 8.1 mph - N/A   Overcast
10:53 PM 28.0 °F 19.3 °F 16.0 °F 61% 29.51 in 8.0 mi SSW 9.2 mph - 0.00 in Snow Light Snow
11:53 PM 27.0 °F 19.5 °F 21.0 °F 78% 29.49 in 3.0 mi SW 6.9 mph - 0.01 in Snow Light Snow